SR9NCI Weather Reports


Display with metric or nautical units.
time (UTC)temp
F
wind
direction
speed
MPH
gust
MPH
rain 1hr
in
rain 24hr
in
rain mn
in
humidity
%
barometer
mb
20260905020139 69 21 0.0 2.0 0.00 0.00 0.00
20260905015738 69 21 1.0 2.0 0.00 0.00 0.00
20260905015336 68 20 1.0 2.0 0.00 0.00 0.00
20260905014936 69 21 0.0 0.0 0.00 0.00 0.00
20260905014533 68 21 0.0 1.0 0.00 0.00 0.00
20260905014132 67 21 1.0 3.0 0.00 0.00 0.00
20260905013731 68 21 1.0 3.0 0.00 0.00 0.00
20260905013329 67 21 2.0 3.0 0.00 0.00 0.00
20260905012921 69 21 2.0 4.0 0.00 0.00 0.00
20260905012518 71 21 2.0 3.0 0.00 0.00 0.00
20260905012117 69 21 0.0 1.0 0.00 0.00 0.00
20260905011716 69 2 1.0 2.0 0.00 0.00 0.00
20260905011314 69 0 0.0 2.0 0.00 0.00 0.00
20260905010912 70 0 0.0 1.0 0.00 0.00 0.00
20260905010510 68 0 0.0 2.0 0.00 0.00 0.00
20260905010109 68 0 0.0 1.0 0.00 0.00 0.00
20260905005708 68 0 0.0 2.0 0.00 0.00 0.00
20260905005306 68 340 3.0 4.0 0.00 0.00 0.00
20260905004857 68 338 0.0 2.0 0.00 0.00 0.00
20260905004455 69 338 1.0 2.0 0.00 0.00 0.00
20260905004054 69 338 1.0 2.0 0.00 0.00 0.00
20260905003652 69 356 1.0 3.0 0.00 0.00 0.00
20260905003250 70 0 1.0 3.0 0.00 0.00 0.00
20260905002849 69 338 1.0 2.0 0.00 0.00 0.00
20260905002448 69 338 2.0 4.0 0.00 0.00 0.00
20260905002047 69 344 1.0 3.0 0.00 0.00 0.00
20260905001644 69 353 2.0 4.0 0.00 0.00 0.00
20260905001243 69 338 1.0 2.0 0.00 0.00 0.00
20260905000835 68 317 4.0 7.0 0.00 0.00 0.00
20260905000433 68 335 4.0 5.0 0.00 0.00 0.00
20260905000031 70 313 4.0 8.0 0.00 0.00 0.00
20260904235630 69 341 3.0 5.0 0.00 0.00 0.00
20260904235228 69 352 1.0 5.0 0.00 0.00 0.00
20260904234827 69 338 3.0 7.0 0.00 0.00 0.00
20260904234424 70 301 2.0 7.0 0.00 0.00 0.00
20260904234023 70 329 5.0 9.0 0.00 0.00 0.00
20260904233622 69 324 5.0 9.0 0.00 0.00 0.00
20260904233220 70 320 4.0 8.0 0.00 0.00 0.00
20260904232811 70 323 4.0 9.0 0.00 0.00 0.00
20260904232409 70 305 4.0 8.0 0.00 0.00 0.00
20260904232008 69 316 5.0 10.0 0.00 0.00 0.00
20260904231607 70 336 7.0 10.0 0.00 0.00 0.00
20260904231205 70 318 6.0 11.0 0.00 0.00 0.00
20260904230803 70 318 7.0 13.0 0.00 0.00 0.00
20260904230401 71 307 7.0 12.0 0.00 0.00 0.00
20260904230000 71 315 6.0 14.0 0.00 0.00 0.00
20260904225600 71 322 8.0 13.0 0.00 0.00 0.00
20260904225156 72 313 8.0 18.0 0.00 0.00 0.00
20260904224749 73 317 7.0 12.0 0.00 0.00 0.00
20260904224347 73 311 6.0 12.0 0.00 0.00 0.00
20260904223946 74 319 9.0 20.0 0.00 0.00 0.00
20260904223544 76 311 8.0 13.0 0.00 0.00 0.00
20260904223142 77 298 12.0 19.0 0.00 0.00 0.00
20260904222741 78 286 14.0 18.0 0.00 0.00 0.00
20260904222339 79 236 10.0 14.0 0.00 0.00 0.00
20260904221937 79 241 9.0 13.0 0.00 0.00 0.00
20260904221536 79 225 11.0 20.0 0.00 0.00 0.00
20260904221134 79 224 9.0 18.0 0.00 0.00 0.00
20260904220726 79 230 9.0 15.0 0.00 0.00 0.00
20260904220324 79 231 11.0 20.0 0.00 0.00 0.00
20260904215922 79 240 10.0 16.0 0.00 0.00 0.00
20260904215521 79 228 11.0 18.0 0.00 0.00 0.00
20260904215119 79 226 11.0 15.0 0.00 0.00 0.00
20260904214718 79 219 8.0 15.0 0.00 0.00 0.00
20260904214315 79 221 7.0 11.0 0.00 0.00 0.00
20260904213914 79 225 7.0 11.0 0.00 0.00 0.00
20260904213513 79 218 8.0 15.0 0.00 0.00 0.00
20260904213111 79 223 8.0 12.0 0.00 0.00 0.00
20260904212702 80 229 10.0 17.0 0.00 0.00 0.00
20260904212300 80 235 10.0 21.0 0.00 0.00 0.00
20260904211859 80 235 9.0 11.0 0.00 0.00 0.00
20260904211458 80 220 9.0 17.0 0.00 0.00 0.00
20260904211054 80 222 7.0 12.0 0.00 0.00 0.00
20260904210653 80 207 6.0 16.0 0.00 0.00 0.00
20260904210251 80 207 8.0 14.0 0.00 0.00 0.00
20260904205850 80 200 10.0 18.0 0.00 0.00 0.00
20260904205449 80 202 8.0 12.0 0.00 0.00 0.00
20260904205046 80 206 9.0 15.0 0.00 0.00 0.00
20260904204638 80 205 11.0 19.0 0.00 0.00 0.00
20260904204236 80 212 11.0 14.0 0.00 0.00 0.00
20260904203835 80 210 10.0 16.0 0.00 0.00 0.00
20260904203433 80 209 14.0 22.0 0.00 0.00 0.00
20260904203031 80 204 13.0 24.0 0.00 0.00 0.00
20260904202630 79 206 12.0 21.0 0.00 0.00 0.00
20260904202228 79 200 12.0 23.0 0.00 0.00 0.00
20260904201826 79 206 13.0 21.0 0.00 0.00 0.00
20260904201425 79 213 12.0 22.0 0.00 0.00 0.00
20260904201023 79 205 11.0 16.0 0.00 0.00 0.00
20260904200615 79 205 9.0 15.0 0.00 0.00 0.00
20260904200212 78 199 10.0 14.0 0.00 0.00 0.00
20260904195811 78 201 10.0 19.0 0.00 0.00 0.00
20260904195410 79 201 13.0 20.0 0.00 0.00 0.00
20260904195008 78 199 9.0 17.0 0.00 0.00 0.00
20260904194607 78 201 10.0 15.0 0.00 0.00 0.00
20260904194204 78 207 10.0 15.0 0.00 0.00 0.00
20260904193803 77 211 7.0 13.0 0.00 0.00 0.00
20260904193402 77 207 9.0 17.0 0.00 0.00 0.00
20260904193000 77 199 7.0 10.0 0.00 0.00 0.00
20260904192551 76 178 5.0 8.0 0.00 0.00 0.00
20260904192149 76 160 4.0 8.0 0.00 0.00 0.00
20260904191748 76 164 4.0 8.0 0.00 0.00 0.00
20260904191347 76 161 4.0 6.0 0.00 0.00 0.00
20260904190944 75 151 3.0 8.0 0.00 0.00 0.00
20260904190543 76 156 4.0 7.0 0.00 0.00 0.00
20260904190142 76 153 5.0 7.0 0.00 0.00 0.00
20260904185741 77 174 2.0 5.0 0.00 0.00 0.00
20260904185338 77 185 4.0 6.0 0.00 0.00 0.00
20260904184937 77 188 3.0 8.0 0.00 0.00 0.00
20260904184529 77 180 3.0 4.0 0.00 0.00 0.00
20260904184127 77 180 1.0 4.0 0.00 0.00 0.00
20260904183726 78 180 3.0 6.0 0.00 0.00 0.00
20260904183324 78 180 4.0 6.0 0.00 0.00 0.00
20260904182921 78 189 4.0 6.0 0.00 0.00 0.00
20260904182520 78 199 5.0 6.0 0.00 0.00 0.00
20260904182119 78 192 3.0 5.0 0.00 0.00 0.00
20260904181716 78 195 6.0 12.0 0.00 0.00 0.00
20260904181315 78 202 3.0 5.0 0.00 0.00 0.00
20260904180914 78 188 4.0 8.0 0.00 0.00 0.00
20260904180506 78 201 6.0 8.0 0.00 0.00 0.00
20260904175702 78 195 6.0 8.0 0.00 0.00 0.00
20260904175301 78 189 7.0 10.0 0.00 0.00 0.00
20260904174859 78 185 8.0 10.0 0.00 0.00 0.00
20260904174457 79 192 7.0 10.0 0.00 0.00 0.00
20260904174055 79 186 8.0 12.0 0.00 0.00 0.00
20260904173654 79 185 8.0 12.0 0.00 0.00 0.00
20260904173252 79 200 8.0 12.0 0.00 0.00 0.00
20260904172850 79 172 7.0 9.0 0.00 0.00 0.00
20260904172441 79 185 7.0 9.0 0.00 0.00 0.00
20260904172039 79 183 8.0 10.0 0.00 0.00 0.00
20260904171238 79 202 6.0 10.0 0.00 0.00 0.00
20260904170834 79 202 9.0 11.0 0.00 0.00 0.00
20260904170434 80 194 10.0 17.0 0.00 0.00 0.00
20260904170032 79 209 6.0 9.0 0.00 0.00 0.00
20260904165631 79 205 7.0 11.0 0.00 0.00 0.00
20260904165229 80 208 7.0 11.0 0.00 0.00 0.00
20260904164827 80 205 7.0 11.0 0.00 0.00 0.00
20260904164419 80 215 7.0 12.0 0.00 0.00 0.00
20260904164017 81 203 6.0 10.0 0.00 0.00 0.00
20260904163615 82 206 8.0 12.0 0.00 0.00 0.00
20260904163214 82 217 9.0 16.0 0.00 0.00 0.00
20260904162812 82 212 10.0 14.0 0.00 0.00 0.00
20260904162411 81 200 11.0 20.0 0.00 0.00 0.00
20260904162009 83 205 9.0 13.0 0.00 0.00 0.00
20260904161607 82 196 10.0 18.0 0.00 0.00 0.00
20260904161206 81 195 8.0 12.0 0.00 0.00 0.00
20260904160804 80 212 8.0 15.0 0.00 0.00 0.00
20260904160356 80 197 8.0 13.0 0.00 0.00 0.00
20260904155953 80 213 8.0 14.0 0.00 0.00 0.00
20260904155552 80 197 6.0 9.0 0.00 0.00 0.00
20260904155151 80 202 10.0 16.0 0.00 0.00 0.00
20260904154750 79 201 8.0 11.0 0.00 0.00 0.00
20260904154347 79 203 6.0 10.0 0.00 0.00 0.00
20260904153945 79 206 7.0 10.0 0.00 0.00 0.00
20260904153544 79 210 8.0 12.0 0.00 0.00 0.00
20260904153143 79 224 8.0 13.0 0.00 0.00 0.00
20260904152740 79 207 8.0 16.0 0.00 0.00 0.00
20260904152332 79 214 7.0 11.0 0.00 0.00 0.00
20260904151930 79 208 9.0 14.0 0.00 0.00 0.00
20260904151530 79 221 8.0 14.0 0.00 0.00 0.00
20260904151128 79 227 7.0 10.0 0.00 0.00 0.00
20260904150725 79 225 10.0 14.0 0.00 0.00 0.00
20260904150325 79 214 10.0 20.0 0.00 0.00 0.00
20260904145923 79 216 11.0 17.0 0.00 0.00 0.00
20260904145521 79 216 9.0 15.0 0.00 0.00 0.00
20260904145119 80 213 9.0 14.0 0.00 0.00 0.00
20260904144716 80 224 10.0 14.0 0.00 0.00 0.00
20260904144308 80 230 11.0 19.0 0.00 0.00 0.00
20260904143907 80 225 11.0 19.0 0.00 0.00 0.00
20260904143504 80 205 13.0 18.0 0.00 0.00 0.00
20260904143103 80 231 11.0 18.0 0.00 0.00 0.00
20260904142701 80 225 11.0 16.0 0.00 0.00 0.00
20260904142300 81 208 12.0 19.0 0.00 0.00 0.00
20260904141857 81 207 9.0 14.0 0.00 0.00 0.00
20260904141456 80 217 8.0 15.0 0.00 0.00 0.00
20260904141055 80 204 13.0 24.0 0.00 0.00 0.00
20260904140653 80 222 12.0 19.0 0.00 0.00 0.00
20260904140245 80 215 14.0 22.0 0.00 0.00 0.00
20260904135842 80 210 10.0 14.0 0.00 0.00 0.00
20260904135441 80 206 11.0 17.0 0.00 0.00 0.00
20260904135040 79 224 9.0 16.0 0.00 0.00 0.00
20260904134638 79 232 9.0 14.0 0.00 0.00 0.00
20260904134236 79 232 9.0 14.0 0.00 0.00 0.00
20260904133834 80 225 11.0 26.0 0.00 0.00 0.00
20260904133433 80 229 11.0 17.0 0.00 0.00 0.00
20260904133033 80 226 14.0 19.0 0.00 0.00 0.00
20260904132629 79 223 12.0 17.0 0.00 0.00 0.00
20260904132221 79 207 12.0 24.0 0.00 0.00 0.00
20260904131820 78 214 13.0 24.0 0.00 0.00 0.00
20260904131419 78 215 10.0 18.0 0.00 0.00 0.00
20260904131017 78 205 11.0 18.0 0.00 0.00 0.00
20260904130614 79 212 12.0 20.0 0.00 0.00 0.00
20260904130213 79 208 10.0 17.0 0.00 0.00 0.00
20260904125811 79 212 8.0 12.0 0.00 0.00 0.00
20260904125410 79 224 10.0 17.0 0.00 0.00 0.00
20260904125008 79 226 11.0 17.0 0.00 0.00 0.00
20260904124606 79 233 11.0 17.0 0.00 0.00 0.00
20260904124158 80 213 10.0 14.0 0.00 0.00 0.00
20260904123756 79 234 9.0 14.0 0.00 0.00 0.00
20260904123354 80 229 7.0 12.0 0.00 0.00 0.00
20260904122953 80 236 7.0 10.0 0.00 0.00 0.00
20260904122551 79 242 7.0 10.0 0.00 0.00 0.00
20260904122150 79 230 9.0 16.0 0.00 0.00 0.00
20260904121747 79 238 9.0 14.0 0.00 0.00 0.00
20260904121346 79 217 8.0 13.0 0.00 0.00 0.00
20260904120945 78 225 10.0 17.0 0.00 0.00 0.00
20260904120543 77 245 13.0 25.0 0.00 0.00 0.00
20260904120134 77 237 13.0 21.0 0.00 0.00 0.00
20260904115732 78 247 8.0 12.0 0.00 0.00 0.00
20260904115331 78 248 10.0 16.0 0.00 0.00 0.00
20260904114930 78 208 12.0 20.0 0.00 0.00 0.00
20260904114528 77 230 10.0 19.0 0.00 0.00 0.00
20260904114126 77 224 10.0 16.0 0.00 0.00 0.00
20260904113724 77 227 12.0 21.0 0.00 0.00 0.00
20260904113323 77 231 12.0 18.0 0.00 0.00 0.00
20260904112922 77 217 13.0 23.0 0.00 0.00 0.00
20260904112519 76 221 10.0 14.0 0.00 0.00 0.00
20260904112111 76 231 8.0 12.0 0.00 0.00 0.00
20260904111710 77 229 9.0 19.0 0.00 0.00 0.00
20260904111309 76 235 12.0 18.0 0.00 0.00 0.00
20260904110906 76 211 11.0 20.0 0.00 0.00 0.00
20260904110505 76 226 9.0 17.0 0.00 0.00 0.00
20260904110104 76 238 9.0 14.0 0.00 0.00 0.00
20260904105702 76 235 11.0 15.0 0.00 0.00 0.00
20260904105300 76 231 11.0 13.0 0.00 0.00 0.00
20260904104859 76 206 10.0 17.0 0.00 0.00 0.00
20260904104457 76 221 10.0 17.0 0.00 0.00 0.00
20260904104049 76 220 10.0 17.0 0.00 0.00 0.00
20260904103647 76 224 9.0 13.0 0.00 0.00 0.00
20260904103245 76 246 7.0 13.0 0.00 0.00 0.00
20260904102844 76 247 10.0 14.0 0.00 0.00 0.00
20260904102442 76 222 6.0 10.0 0.00 0.00 0.00
20260904101638 75 208 14.0 21.0 0.00 0.00 0.00
20260904100836 75 226 9.0 15.0 0.00 0.00 0.00
20260904100442 75 220 9.0 19.0 0.00 0.00 0.00
20260904100434 75 220 9.0 19.0 0.00 0.00 0.00
20260904100024 76 223 12.0 18.0 0.00 0.00 0.00
20260904095222 75 244 9.0 15.0 0.00 0.00 0.00
20260904094821 75 259 8.0 17.0 0.00 0.00 0.00
20260904094418 74 250 9.0 12.0 0.00 0.00 0.00
20260904094017 75 227 7.0 13.0 0.00 0.00 0.00
20260904093615 74 240 9.0 15.0 0.00 0.00 0.00
20260904093214 75 229 10.0 16.0 0.00 0.00 0.00
20260904092813 75 202 11.0 18.0 0.00 0.00 0.00
20260904092002 75 193 9.0 15.0 0.00 0.00 0.00
20260904091159 74 223 8.0 17.0 0.00 0.00 0.00
20260904090757 73 229 6.0 11.0 0.00 0.00 0.00
20260904090355 73 237 8.0 16.0 0.00 0.00 0.00
20260904085954 73 224 10.0 17.0 0.00 0.00 0.00
20260904085552 73 221 9.0 14.0 0.00 0.00 0.00
20260904085150 73 234 8.0 14.0 0.00 0.00 0.00
20260904084749 73 216 9.0 13.0 0.00 0.00 0.00
20260904084348 72 209 10.0 14.0 0.00 0.00 0.00
20260904083939 73 207 9.0 16.0 0.00 0.00 0.00
20260904083537 73 214 10.0 16.0 0.00 0.00 0.00
20260904083136 73 222 10.0 17.0 0.00 0.00 0.00
20260904082333 72 220 9.0 16.0 0.00 0.00 0.00
20260904081932 71 248 10.0 14.0 0.00 0.00 0.00
20260904081529 72 241 6.0 11.0 0.00 0.00 0.00
20260904081128 71 231 8.0 12.0 0.00 0.00 0.00
20260904080727 71 218 8.0 12.0 0.00 0.00 0.00
20260904080325 71 231 9.0 16.0 0.00 0.00 0.00
20260904075916 71 220 8.0 11.0 0.00 0.00 0.00
20260904075514 71 228 7.0 12.0 0.00 0.00 0.00
20260904075113 71 221 7.0 12.0 0.00 0.00 0.00
20260904074712 71 242 6.0 11.0 0.00 0.00 0.00
20260904074309 71 230 9.0 13.0 0.00 0.00 0.00
20260904073908 71 236 8.0 11.0 0.00 0.00 0.00
20260904073506 71 220 11.0 16.0 0.00 0.00 0.00
20260904073105 70 258 10.0 15.0 0.00 0.00 0.00
20260904072702 71 250 10.0 15.0 0.00 0.00 0.00
20260904072300 71 225 10.0 16.0 0.00 0.00 0.00
20260904071852 71 229 9.0 12.0 0.00 0.00 0.00
20260904071449 70 223 9.0 14.0 0.00 0.00 0.00
20260904071048 71 234 7.0 10.0 0.00 0.00 0.00
20260904070646 70 257 8.0 13.0 0.00 0.00 0.00
20260904070244 70 254 9.0 12.0 0.00 0.00 0.00
20260904065843 70 246 7.0 10.0 0.00 0.00 0.00
20260904065441 70 249 9.0 11.0 0.00 0.00 0.00
20260904065039 70 246 5.0 12.0 0.00 0.00 0.00
20260904064638 70 248 6.0 9.0 0.00 0.00 0.00
20260904063829 70 225 6.0 10.0 0.00 0.00 0.00
20260904063426 70 229 8.0 12.0 0.00 0.00 0.00
20260904063025 70 223 4.0 6.0 0.00 0.00 0.00
20260904062624 70 216 5.0 10.0 0.00 0.00 0.00
20260904062222 70 229 6.0 10.0 0.00 0.00 0.00
20260904061820 70 235 8.0 10.0 0.00 0.00 0.00
20260904061418 69 218 7.0 10.0 0.00 0.00 0.00
20260904061017 69 222 5.0 7.0 0.00 0.00 0.00
20260904060616 69 229 6.0 9.0 0.00 0.00 0.00
20260904060214 69 230 7.0 10.0 0.00 0.00 0.00
20260904055805 69 230 7.0 9.0 0.00 0.00 0.00
20260904055403 69 219 6.0 10.0 0.00 0.00 0.00
20260904055002 69 218 5.0 9.0 0.00 0.00 0.00
20260904054601 69 224 7.0 10.0 0.00 0.00 0.00
20260904054158 68 229 7.0 10.0 0.00 0.00 0.00
20260904053757 69 225 6.0 9.0 0.00 0.00 0.00
20260904053355 69 218 5.0 8.0 0.00 0.00 0.00
20260904052954 69 220 4.0 7.0 0.00 0.00 0.00
20260904052552 69 221 6.0 10.0 0.00 0.00 0.00
20260904052150 69 213 3.0 5.0 0.00 0.00 0.00
20260904051743 69 223 6.0 9.0 0.00 0.00 0.00
20260904051341 69 223 5.0 9.0 0.00 0.00 0.00
20260904050938 69 223 6.0 11.0 0.00 0.00 0.00
20260904050537 69 222 5.0 8.0 0.00 0.00 0.00
20260904050136 68 220 5.0 9.0 0.00 0.00 0.00
20260904045333 68 227 8.0 12.0 0.00 0.00 0.00
20260904044931 68 235 8.0 12.0 0.00 0.00 0.00
20260904044529 68 225 7.0 13.0 0.00 0.00 0.00
20260904044128 68 215 7.0 11.0 0.00 0.00 0.00
20260904043317 68 226 5.0 9.0 0.00 0.00 0.00
20260904042916 69 215 5.0 10.0 0.00 0.00 0.00
20260904042515 68 223 5.0 10.0 0.00 0.00 0.00
20260904042113 68 224 5.0 7.0 0.00 0.00 0.00
20260904041711 68 234 4.0 8.0 0.00 0.00 0.00
20260904041309 68 235 4.0 6.0 0.00 0.00 0.00
20260904040908 68 234 4.0 5.0 0.00 0.00 0.00
20260904040507 68 242 6.0 10.0 0.00 0.00 0.00
20260904040104 68 244 5.0 7.0 0.00 0.00 0.00
20260904035656 67 241 5.0 9.0 0.00 0.00 0.00
20260904035254 67 248 6.0 9.0 0.00 0.00 0.00
20260904034853 67 248 6.0 9.0 0.00 0.00 0.00
20260904034452 68 242 5.0 9.0 0.00 0.00 0.00
20260904034049 68 236 5.0 8.0 0.00 0.00 0.00
20260904033648 68 242 5.0 8.0 0.00 0.00 0.00
20260904033246 68 235 5.0 9.0 0.00 0.00 0.00
20260904032845 68 234 5.0 8.0 0.00 0.00 0.00
20260904032443 68 236 5.0 9.0 0.00 0.00 0.00
20260904032042 68 247 4.0 6.0 0.00 0.00 0.00
20260904031634 68 222 3.0 6.0 0.00 0.00 0.00
20260904031232 68 233 5.0 8.0 0.00 0.00 0.00
20260904030830 68 239 4.0 8.0 0.00 0.00 0.00
20260904030429 68 249 5.0 9.0 0.00 0.00 0.00
20260904030027 68 244 6.0 10.0 0.00 0.00 0.00
20260904025626 68 245 6.0 8.0 0.00 0.00 0.00
20260904025223 68 250 6.0 8.0 0.00 0.00 0.00
20260904024822 68 259 4.0 6.0 0.00 0.00 0.00
20260904024421 68 248 5.0 7.0 0.00 0.00 0.00
20260904024019 68 249 5.0 7.0 0.00 0.00 0.00
20260904023611 68 239 6.0 9.0 0.00 0.00 0.00
20260904023208 68 250 5.0 7.0 0.00 0.00 0.00
20260904022807 68 248 5.0 8.0 0.00 0.00 0.00
20260904022406 68 241 6.0 8.0 0.00 0.00 0.00
20260904022004 68 237 6.0 8.0 0.00 0.00 0.00
20260904021602 68 238 4.0 6.0 0.00 0.00 0.00
20260904020759 68 244 5.0 7.0 0.00 0.00 0.00
20260904020358 68 241 5.0 8.0 0.00 0.00 0.00